Simultaneous Nadir Overpasses (SNOs) Predictions

Prediction of SNOs between AQUA and METOP-B Satellite Orbit:

Table of predicted SNOs for the next 14.0 days since TLE Epoch: 12/20/2019
Index Date (AQUA) Time (AQUA) Lat,Lon (AQUA) SZA (AQUA ) Date (METOP-B) Time (METOP-B) Lat,Lon (METOP-B) SZA (METOP-B ) Distance(km) Time Diff (sec)
1 12/22/2019 14:10:18 -73.75, 141.76 82.85 12/22/2019 14:09:35 -73.75, 141.69 82.84 2.12 43
2 12/22/2019 14:59:48 73.85, -50.82 97.26 12/22/2019 15:00:13 73.86, -50.72 97.27 3.18 25
3 12/25/2019 09:44:34 -73.78,-151.85 82.85 12/25/2019 09:43:59 -73.76,-151.88 82.86 2.13 35
4 12/25/2019 10:34:03 73.83, 15.67 97.21 12/25/2019 10:34:38 73.81, 15.57 97.19 3.43 35
5 12/28/2019 05:18:48 -73.75, -85.37 82.97 12/28/2019 05:18:22 -73.77, -85.46 82.95 3.07 26
6 12/28/2019 06:08:18 73.86, 82.03 97.15 12/28/2019 06:09:00 73.86, 82.11 97.14 2.26 42
7 12/31/2019 00:03:25 73.07, 174.87 96.16 12/31/2019 00:02:20 72.98, 171.85 96.18 98.26 65
8 12/31/2019 00:53:04 -73.79, -19.01 83.08 12/31/2019 00:52:46 -73.77, -19.04 83.10 2.29 18
9 12/31/2019 01:42:33 73.85, 148.50 96.98 12/31/2019 01:43:24 73.86, 148.52 96.99 1.82 51
10 01/02/2020 19:37:46 73.38,-119.33 96.27 01/02/2020 19:36:37 73.33,-120.97 96.29 52.45 69
11 01/02/2020 20:27:19 -73.78, 47.45 83.31 01/02/2020 20:27:10 -73.78, 47.38 83.31 2.28 9
12 01/02/2020 21:16:48 73.84,-145.05 96.76 01/02/2020 21:17:48 73.86,-145.08 96.77 2.42 60




NCC Satellite Simultaneous Nadir Overpasses (SNOs) Prediction Service
